TimePDT,TemperatureF,Dew PointF,Humidity,Sea Level PressureIn,VisibilityMPH,Wind Direction,Wind SpeedMPH,Gust SpeedMPH,PrecipitationIn,Events,Conditions,WindDirDegrees,DateUTC
12:53 AM,37.9,32.0,79,29.96,10.0,SW,6.9,-,N/A,,Clear,220,2013-03-17 07:53:00
1:53 AM,37.9,30.9,76,29.98,10.0,WSW,4.6,-,N/A,,Clear,240,2013-03-17 08:53:00
3:53 AM,32.0,30.9,96,30.03,10.0,Calm,Calm,-,N/A,,Clear,0,2013-03-17 10:53:00
4:53 AM,34.0,30.0,85,30.05,10.0,Calm,Calm,-,N/A,,Clear,0,2013-03-17 11:53:00
5:53 AM,36.0,30.9,82,30.07,10.0,Calm,Calm,-,N/A,,Scattered Clouds,0,2013-03-17 12:53:00
6:53 AM,37.0,30.9,79,30.09,10.0,WSW,3.5,-,N/A,,Overcast,240,2013-03-17 13:53:00
7:53 AM,39.0,30.0,70,30.11,10.0,Variable,3.5,-,N/A,,Mostly Cloudy,0,2013-03-17 14:53:00
8:53 AM,42.1,28.9,60,30.12,10.0,WSW,10.4,16.1,N/A,,Clear,240,2013-03-17 15:53:00
9:53 AM,45.0,28.0,52,30.14,10.0,WSW,10.4,16.1,N/A,,Clear,240,2013-03-17 16:53:00
10:53 AM,45.0,35.1,68,30.15,10.0,SSW,10.4,20.7,N/A,,Mostly Cloudy,210,2013-03-17 17:53:00
11:53 AM,45.0,28.0,52,30.16,10.0,Variable,3.5,-,N/A,,Overcast,0,2013-03-17 18:53:00
12:53 PM,46.0,35.1,66,30.16,10.0,SW,12.7,23.0,N/A,,Partly Cloudy,220,2013-03-17 19:53:00
1:53 PM,46.0,33.1,61,30.15,10.0,SW,12.7,26.5,N/A,,Clear,220,2013-03-17 20:53:00
2:53 PM,46.0,32.0,58,30.15,10.0,SW,12.7,28.8,N/A,,Clear,220,2013-03-17 21:53:00
3:53 PM,46.9,32.0,56,30.15,10.0,SW,19.6,26.5,N/A,,Clear,220,2013-03-17 22:53:00
4:53 PM,44.1,32.0,63,30.16,10.0,SW,12.7,21.9,N/A,,Clear,220,2013-03-17 23:53:00
5:53 PM,44.1,30.9,60,30.15,10.0,SW,10.4,17.3,N/A,,Overcast,230,2013-03-18 00:53:00
6:53 PM,42.1,30.9,65,30.14,10.0,SW,12.7,25.3,N/A,,Overcast,220,2013-03-18 01:53:00
7:53 PM,39.9,32.0,73,30.15,10.0,SW,9.2,18.4,N/A,,Scattered Clouds,230,2013-03-18 02:53:00
8:53 PM,39.9,33.1,77,30.15,10.0,SW,12.7,19.6,N/A,,Mostly Cloudy,230,2013-03-18 03:53:00
9:53 PM,39.9,33.1,77,30.15,10.0,SW,9.2,-,N/A,,Partly Cloudy,220,2013-03-18 04:53:00
10:53 PM,39.9,34.0,79,30.15,10.0,SSW,8.1,-,N/A,,Scattered Clouds,200,2013-03-18 05:53:00
11:53 PM,41.0,34.0,76,30.14,10.0,SW,11.5,20.7,N/A,,Overcast,230,2013-03-18 06:53:00